TimeEST,TemperatureF,Dew PointF,Humidity,Sea Level PressureIn,VisibilityMPH,Wind Direction,Wind SpeedMPH,Gust SpeedMPH,PrecipitationIn,Events,Conditions,WindDirDegrees,DateUTC
12:53 AM,46.0,44.1,93,30.00,10.0,Calm,Calm,-,N/A,,Mostly Cloudy,0,2012-12-20 05:53:00
1:53 AM,44.1,43.0,96,29.99,10.0,Calm,Calm,-,N/A,,Mostly Cloudy,0,2012-12-20 06:53:00
2:53 AM,44.1,43.0,96,29.97,10.0,East,4.6,-,N/A,,Mostly Cloudy,80,2012-12-20 07:53:00
3:53 AM,44.1,43.0,96,29.92,10.0,Calm,Calm,-,N/A,,Mostly Cloudy,0,2012-12-20 08:53:00
4:53 AM,46.0,45.0,96,29.88,10.0,South,3.5,-,0.00,Rain,Light Rain,170,2012-12-20 09:53:00
5:53 AM,50.0,45.0,83,29.88,6.0,Variable,3.5,-,0.02,Rain,Light Rain,0,2012-12-20 10:53:00
6:53 AM,50.0,46.4,87,29.87,7.0,South,8.1,-,N/A,Rain,Light Rain,170,2012-12-20 11:53:00
7:01 AM,51.8,46.4,82,29.87,2.5,SSE,10.4,-,0.01,Rain,Rain,160,2012-12-20 12:01:00
7:53 AM,48.9,46.9,93,29.85,2.0,SE,8.1,17.3,0.23,Rain,Rain,140,2012-12-20 12:53:00
8:07 AM,50.0,46.4,87,29.85,3.0,SSE,10.4,19.6,0.03,Rain,Light Rain,160,2012-12-20 13:07:00
8:49 AM,48.2,46.4,93,29.83,4.0,SSE,11.5,19.6,0.07,,Overcast,160,2012-12-20 13:49:00
8:53 AM,48.9,46.0,90,29.83,4.0,SSE,11.5,19.6,0.07,,Overcast,150,2012-12-20 13:53:00
9:53 AM,48.9,46.9,93,29.79,6.0,SSE,8.1,17.3,0.02,Rain,Light Rain,160,2012-12-20 14:53:00
10:36 AM,48.2,46.4,93,29.75,4.0,SSE,9.2,-,0.02,Rain,Light Rain,160,2012-12-20 15:36:00
10:50 AM,50.0,48.2,94,29.73,2.0,SSE,8.1,-,0.03,Rain,Rain,160,2012-12-20 15:50:00
10:53 AM,50.0,48.0,93,29.73,2.0,South,10.4,-,0.05,Rain,Rain,170,2012-12-20 15:53:00
11:00 AM,48.2,48.2,100,29.73,2.0,South,9.2,-,0.04,Rain,Rain,180,2012-12-20 16:00:00
11:08 AM,50.0,48.2,94,29.71,1.8,South,6.9,-,0.04,Rain,Rain,170,2012-12-20 16:08:00
11:29 AM,50.0,48.2,94,29.69,2.0,South,6.9,-,0.10,Rain,Light Rain,180,2012-12-20 16:29:00
11:42 AM,50.0,48.2,94,29.70,1.5,SW,8.1,-,0.14,Rain,Heavy Rain,230,2012-12-20 16:42:00
11:53 AM,50.0,48.9,96,29.70,1.5,SW,6.9,-,0.21,Rain,Heavy Rain,230,2012-12-20 16:53:00
11:55 AM,50.0,48.2,94,29.71,1.5,WSW,9.2,-,0.01,Rain,Rain,240,2012-12-20 16:55:00
12:07 PM,50.0,48.2,94,29.70,2.0,SW,6.9,-,0.04,Rain,Light Rain,230,2012-12-20 17:07:00
12:19 PM,50.0,50.0,100,29.72,1.8,SW,6.9,-,0.04,Rain,Light Rain,220,2012-12-20 17:19:00
12:49 PM,51.8,51.8,100,29.66,2.0,SSE,8.1,-,0.14,Rain,Rain,150,2012-12-20 17:49:00
12:53 PM,51.1,51.1,100,29.65,2.0,SE,8.1,-,0.14,Rain,Rain,140,2012-12-20 17:53:00
1:53 PM,52.0,52.0,100,29.62,2.0,SSW,5.8,-,0.07,Rain,Light Rain,200,2012-12-20 18:53:00
1:56 PM,51.8,51.8,100,29.62,7.0,South,5.8,-,0.00,Rain,Light Rain,180,2012-12-20 18:56:00
2:53 PM,54.0,48.0,80,29.63,10.0,SSW,12.7,-,0.00,,Mostly Cloudy,200,2012-12-20 19:53:00
3:53 PM,55.0,45.0,69,29.63,10.0,SW,13.8,25.3,N/A,,Mostly Cloudy,220,2012-12-20 20:53:00
4:53 PM,51.1,37.0,59,29.71,10.0,WSW,20.7,33.4,N/A,,Mostly Cloudy,240,2012-12-20 21:53:00
5:53 PM,45.0,28.9,53,29.79,10.0,West,24.2,34.5,N/A,,Overcast,270,2012-12-20 22:53:00
6:53 PM,45.0,28.9,53,29.83,10.0,West,12.7,26.5,N/A,,Overcast,260,2012-12-20 23:53:00
7:53 PM,44.1,28.0,53,29.86,10.0,West,20.7,31.1,N/A,,Overcast,270,2012-12-21 00:53:00
8:53 PM,43.0,27.0,53,29.88,10.0,West,13.8,31.1,N/A,,Overcast,260,2012-12-21 01:53:00
9:53 PM,43.0,27.0,53,29.88,10.0,West,11.5,23.0,N/A,,Overcast,270,2012-12-21 02:53:00
10:53 PM,43.0,27.0,53,29.89,10.0,WSW,15.0,28.8,N/A,,Overcast,250,2012-12-21 03:53:00
11:53 PM,42.1,27.0,55,29.90,10.0,WSW,11.5,23.0,N/A,,Overcast,250,2012-12-21 04:53:00